sat.trackr.live / text

‹ back to catalog

BLACK KITE-1

NORAD 66741 · 2025-276CD

PAYLOAD ACTIVE UNKNOWN

§ Identity

Operator
Country
ROC
Launch date
2025-11-28
Launch site
AFWTR
Launch vehicle
Mass (kg)
RCS (m²)

External: N2YO · Heavens-Above · Gunter

§ Orbital elements

Epoch: 2026-09-20T22:49:47.119584Z

Period
94.62 min
Inclination
97.4163°
Eccentricity
0.0005907
Mean motion
15.21834623 rev/d
Perigee alt
496.2 km
Apogee alt
504.4 km
Semi-major
6,878.4 km
B*
2.2658e-4
RAAN
336.2918°
Arg perigee
30.2790°
Mean anomaly
329.8786°
Rev number
4,228

§ Raw data

BLACK KITE-11 66741U 25276CD  26263.95123981  .00005081  00000+0  22658-3 0  99922 66741  97.4163 336.2918 0005907  30.2790 329.8786 15.21834623 42284

JSON: /api/v1/satellites/66741 · /tle

For live sub-satellite position, see the globe view (requires WebGL).

§ Visibility from observer

Set your observer location to see the next 7 days of passes ≥ 10°. The values pass through the URL so the page stays shareable.

No JS? Fill the form by hand. The geolocation button needs JavaScript.

§ Radio — SatNOGS DB

ModeDescriptionDownlinkUplink
FM S-band telemetry 2.288 GHz

1 transmitter · refreshed weekly from db.satnogs.org